New York, NY

8:36 PM EST on November 11, 2019 (GMT -0500)
La Guardia

Weather History for KLGA - August, 2019

Change the Weather History Date:

Tuesday, August 6, 2019

  Actual Average Record
Temperature  
Mean Temperature 78 °F 77 °F  
Max Temperature 83 °F 85 °F 95 °F (2018)
Min Temperature 72 °F 70 °F 57 °F (1994)
Degree Days  
Heating Degree Days 0 0  
Month to date heating degree days 0 0  
Since 1 June heating degree days 4 16  
Since 1 July heating degree days 0 0  
Cooling Degree Days 13 12  
Month to date cooling degree days 86 76  
Year to date cooling degree days 911 758  
Since 1 June cooling degree days 849 692  
Growing Degree Days 27 (Base 50)    
Moisture  
Dew Point 68 °F    
Average Humidity 74    
Maximum Humidity 90    
Minimum Humidity 58    
Precipitation  
Precipitation 0.00 in 0.15 in 2.34 in (1978)
Month to date precipitation 0.12 0.91  
Year to date precipitation 32.82 27.04  
Snow  
Snow 0.00 in 0.00 in - ()
Month to date snowfall 0.0 0.0  
Since 1 July snowfall 0.0 0.0  
Snow Depth 0.00 in    
Sea Level Pressure  
Sea Level Pressure 29.88 in    
Wind  
Wind Speed 8 mph (East)    
Max Wind Speed 15 mph    
Max Gust Speed 19 mph    
Visibility 10 miles    
Events      
T = Trace of Precipitation, MM = Missing Value Source: NWS Daily Summary

Daily Weather History Graph

Daily Weather History Graph

Search for Another Location

Airport or City:

Astronomy

Aug. 06, 2019 Rise Set
Actual Time 5:56 AM EDT 8:05 PM EDT
Civil Twilight 5:26 AM EDT 8:35 PM EDT
Nautical Twilight 4:49 AM EDT 9:12 PM EDT
Astronomical Twilight 4:08 AM EDT 9:53 PM EDT
Moon 12:21 PM EDT (8/6) 11:46 PM EDT (8/6)
Length of Visible Light 15h 09m
Length of Day
14h 08m
Waxing Crescent, 38% of the Moon is Illuminated
Aug 6
Waxing Crescent
Aug 7
First Quarter
Aug 15
Full
Aug 23
Last Quarter
Aug 30
New

Hourly Weather History & Observations

Time (EDT) Temp. Heat Index Dew Point Humidity Pressure Visibility Wind Dir Wind Speed Gust Speed Precip Events Conditions
12:51 AM 75.0 °F - 68.0 °F 79% 29.94 in 10.0 mi SE 6.9 mph - N/A   Mostly Cloudy
1:51 AM 75.0 °F - 68.0 °F 79% 29.91 in 10.0 mi East 5.8 mph - N/A   Mostly Cloudy
2:51 AM 73.9 °F - 68.0 °F 82% 29.90 in 10.0 mi ENE 5.8 mph - N/A   Mostly Cloudy
3:51 AM 73.0 °F - 68.0 °F 84% 29.91 in 10.0 mi NE 9.2 mph - N/A   Mostly Cloudy
4:12 AM 72.0 °F - 68.0 °F 87% 29.90 in 10.0 mi ENE 6.9 mph - N/A   Mostly Cloudy
4:42 AM 72.0 °F - 68.0 °F 87% 29.91 in 10.0 mi ENE 4.6 mph - N/A   Mostly Cloudy
4:51 AM 72.0 °F - 68.0 °F 87% 29.91 in 10.0 mi ENE 4.6 mph - N/A   Mostly Cloudy
5:51 AM 72.0 °F - 68.0 °F 87% 29.91 in 10.0 mi NE 6.9 mph - N/A   Mostly Cloudy
6:07 AM 72.0 °F - 68.0 °F 87% 29.91 in 7.0 mi NE 6.9 mph - N/A   Mostly Cloudy
6:27 AM 73.0 °F - 68.0 °F 84% 29.91 in 8.0 mi NE 9.2 mph - N/A   Overcast
6:51 AM 72.0 °F - 68.0 °F 87% 29.91 in 8.0 mi NE 5.8 mph - N/A   Overcast
7:51 AM 72.0 °F - 68.0 °F 87% 29.90 in 9.0 mi East 6.9 mph - N/A   Overcast
8:04 AM 72.0 °F - 68.0 °F 87% 29.90 in 10.0 mi NE 8.1 mph - N/A   Overcast
8:37 AM 73.0 °F - 68.0 °F 84% 29.90 in 10.0 mi NE 9.2 mph - N/A   Overcast
8:51 AM 73.0 °F - 68.0 °F 84% 29.90 in 10.0 mi ENE 10.4 mph - N/A   Overcast
8:59 AM 73.9 °F - 68.0 °F 82% 29.90 in 10.0 mi NE 9.2 mph - N/A   Overcast
9:51 AM 73.0 °F - 69.1 °F 87% 29.89 in 8.0 mi NE 9.2 mph - N/A   Overcast
10:04 AM 73.0 °F - 68.0 °F 84% 29.89 in 8.0 mi NE 8.1 mph - N/A   Overcast
10:51 AM 75.0 °F - 69.1 °F 82% 29.90 in 10.0 mi NE 8.1 mph - N/A   Overcast
11:51 AM 75.9 °F - 69.1 °F 79% 29.91 in 10.0 mi NE 10.4 mph - N/A   Overcast
12:51 PM 77.0 °F - 69.1 °F 76% 29.89 in 10.0 mi ENE 10.4 mph - N/A   Overcast
1:51 PM 81.0 °F 83.0 °F 66.0 °F 60% 29.86 in 10.0 mi Variable 6.9 mph 16.1 mph N/A   Mostly Cloudy
2:51 PM 80.1 °F 82.1 °F 66.0 °F 62% 29.84 in 10.0 mi South 6.9 mph - N/A   Mostly Cloudy
3:51 PM 80.1 °F 82.3 °F 66.9 °F 64% 29.83 in 10.0 mi South 11.5 mph - N/A   Mostly Cloudy
4:51 PM 82.0 °F 84.5 °F 66.9 °F 60% 29.83 in 10.0 mi South 11.5 mph - N/A   Mostly Cloudy
5:51 PM 81.0 °F 82.7 °F 64.9 °F 58% 29.83 in 10.0 mi SSE 12.7 mph - N/A   Scattered Clouds
6:51 PM 80.1 °F 81.9 °F 64.9 °F 60% 29.83 in 10.0 mi South 9.2 mph - N/A   Scattered Clouds
7:51 PM 79.0 °F - 66.0 °F 64% 29.83 in 10.0 mi South 9.2 mph 18.4 mph N/A   Mostly Cloudy
8:51 PM 77.0 °F - 66.9 °F 71% 29.84 in 10.0 mi South 11.5 mph - N/A   Mostly Cloudy
9:51 PM 77.0 °F - 66.9 °F 71% 29.84 in 10.0 mi South 9.2 mph - N/A   Mostly Cloudy
10:51 PM 77.0 °F - 66.9 °F 71% 29.85 in 10.0 mi South 8.1 mph - N/A   Mostly Cloudy
11:51 PM 77.0 °F - 66.9 °F 71% 29.83 in 10.0 mi South 5.8 mph - N/A   Mostly Cloudy